Location: Unspecified
(0.0000°N, 0.0000°E)
Time: 14:25:27
(UTC+00:00)

Kosmos-648 - Visible Passes

Search period start: 03 July 2022 00:00
Search period end: 13 July 2022 00:00
Orbit: 1437 x 1489 km, 74.0° (Epoch: 02 July)

Date Brightness Start Highest point End Pass type
(mag) Time Alt. Az. Time Alt. Az. Time Alt. Az.
03 Jul ? 20:11:27 10° N 20:19:56 57° ENE 20:19:56 57° ENE visible
03 Jul ? 22:11:47 10° WNW 22:15:13 17° W 22:15:13 17° W visible
04 Jul ? 19:15:11 10° NNE 19:21:44 23° ENE 19:23:18 22° E visible
04 Jul ? 21:10:34 10° NNW 21:18:35 46° W 21:18:35 46° W visible
05 Jul ? 20:11:43 10° N 20:20:34 78° E 20:22:01 65° SE visible
05 Jul ? 22:15:28 10° W 22:17:19 11° W 22:17:19 11° W visible
06 Jul ? 19:14:34 10° NNE 19:22:14 33° ENE 19:25:31 26° ESE visible
06 Jul ? 21:11:47 10° NW 21:19:22 33° WSW 21:20:49 31° WSW visible
07 Jul ? 20:12:13 10° NNW 20:21:03 78° WSW 20:24:23 44° S visible
08 Jul ? 19:14:23 10° N 19:22:44 47° ENE 19:28:02 23° SE visible
08 Jul ? 21:13:26 10° NW 21:19:52 23° WSW 21:23:20 18° SW visible
09 Jul ? 20:12:57 10° NNW 20:21:32 56° WSW 20:27:03 24° S visible
10 Jul ? 19:14:29 10° N 19:23:13 65° ENE 19:30:50 15° SSE visible
10 Jul ? 21:15:52 10° WNW 21:20:24 15° WSW 21:24:57 10° SW visible
11 Jul ? 18:17:49 10° NNE 18:24:53 27° ENE 18:31:52 10° SE visible
11 Jul ? 20:13:58 10° NW 20:22:01 40° WSW 20:30:01 10° SSW visible
12 Jul ? 19:14:51 10° N 19:23:42 88° E 19:32:32 10° SSE visible
